This is the latest recevied weather packets stored in our database for station/object KF4ERV-4. If no packets are shown the sender has not sent any weather packets the latest 10 day(s).
| Time | Temp. | Humidity | Pressure | Rain* | Wind** | Luminosity | Snow |
|---|---|---|---|---|---|---|---|
| 1778122502 | 11.67° C | 61% | 1016 hPa | 0 mm | - | - | - |
| 1778122428 | 11.67° C | 67% | 1016 hPa | 0 mm | - | - | - |
| 1778122195 | 11.67° C | 67% | 1016 hPa | 0 mm | - | - | - |
| 1778121953 | 11.67° C | 68% | 1016 hPa | 0 mm | - | - | - |
| 1778121897 | 11.67° C | 68% | 1016 hPa | 0 mm | - | - | - |
| 1778121844 | 11.67° C | 68% | 1016 hPa | 0 mm | - | - | - |
| 1778121599 | 11.67° C | 68% | 1016 hPa | 0 mm | - | - | - |
| 1778121556 | 12.22° C | 74% | 1016 hPa | 0 mm | - | - | - |
| 1778121375 | 12.22° C | 74% | 1016 hPa | 0 mm | - | - | - |
| 1778121326 | 12.22° C | 76% | 1016 hPa | 0 mm | - | - | - |
| 1778121291 | 12.22° C | 74% | 1016 hPa | 0 mm | - | - | - |
| 1778121265 | 12.22° C | 76% | 1016 hPa | 0 mm | - | - | - |
| 1778121171 | 12.22° C | 80% | 1016 hPa | 0 mm | - | - | - |
| 1778120994 | 12.22° C | 76% | 1016 hPa | 0 mm | - | - | - |
| 1778120974 | 12.22° C | 80% | 1016 hPa | 0 mm | - | - | - |
| 1778120697 | 12.22° C | 80% | 1016 hPa | 0 mm | - | - | - |
| 1778120394 | 12.22° C | 84% | 1016 hPa | 0 mm | - | - | - |
| 1778120094 | 12.22° C | 85% | 1016 hPa | 0 mm | - | - | - |
| 1778119904 | 12.78° C | 86% | 1015.7 hPa | 0 mm | - | - | - |
| 1778119796 | 12.78° C | 85% | 1015.9 hPa | 0 mm | - | - | - |
| 1778119529 | 12.78° C | 86% | 1015.7 hPa | 0 mm | - | - | - |
| 1778119498 | 12.78° C | 86% | 1015.7 hPa | 0 mm | - | - | - |
| 1778119201 | 12.78° C | 86% | 1015.2 hPa | 0 mm | - | - | - |
| 1778119085 | 12.78° C | 86% | 1015.1 hPa | 0 mm | - | - | - |
| 1778118944 | 12.78° C | 86% | 1015.1 hPa | 0 mm | - | - | - |
* Rain latest hour (hover to see other rain measurements)
** Current wind speed in m/s (hover to see current wind gust speed)